Location: Goettingen
(51.5300°N, 9.9433°E)
Time: 13:06:45
(UTC+02:00)

Tiangong - Pass Details

Date: 01 October 2021
Orbit: 382 x 385 km, 41.5° (Epoch: 18 October)

Event Time Altitude Azimuth Distance (km) Brightness Sun altitude
Exits shadow 05:53:06 12° 194° (SSW) 1,291 3.4 -14.4°
Maximum altitude 05:54:05 13° 174° (S) 1,221 3.5 -14.3°
Drops below altitude 10° 05:55:40 10° 144° (SE) 1,395 4.2 -14.0°
Sets 05:58:32 0° 116° (ESE) 2,248 5.8 -13.6°
